Regional Weather Roundup
Issued by NWS Kansas City/Pleasant Hill, MO

Home | Current Version | Previous Version | Graphics & Text | Print | Product List | Glossary Off
Versions: 1 2 3 4 5 6 7 8 9 10 11 12 13 14 15 16 17 18 19 20 21 22 23 24 25 26 27 28 29 30 31 32 33 34 35 36 37 38 39 40 41 42 43 44 45 46 47 48 49 50

000
ASUS43 KEAX 250310
RWREAX

WEATHER ROUNDUP FOR EASTERN KANSAS AND NORTHWEST MISSOURI
NATIONAL WEATHER SERVICE KANSAS CITY/PLEASANT HILL MO
900 PM CST WED DEC 24 2014

KSZ040-057-103>105-MOZ028-029-037-043-250400-
...KANSAS CITY METROPOLITAN AREA...

CITY           SKY/WX    TMP DP  RH WIND       PRES   REMARKS
K.C. INTL      CLOUDY    33  29  85 SW12      29.82F WCI  24
K.C. DOWNTOWN  CLOUDY    35  28  75 SW10G21   29.84F WCI  27
LEES SUMMIT    CLOUDY    34  29  82 SW16G24   29.84F WCI  24
OLATHE - IXD   PTCLDY    31  28  89 S6        29.84F WCI  25
OLATHE - OJC   CLOUDY    33  29  85 SW6       29.83F WCI  28
LAWRENCE       CLEAR     31  27  85 S6        29.84F WCI  25

$$

MOZ001>008-011>017-020>025-030>033-038>040-044>046-053-054-250400-
...NORTHERN AND CENTRAL MISSOURI...

CITY           SKY/WX    TMP DP  RH WIND       PRES   REMARKS
ST. JOSEPH     CLOUDY    32  28  85 SW8       29.82F WCI  25
MOSBY          CLOUDY    34  30  86 SW13      29.85S WCI  25
WARRENSBURG    CLOUDY    34  30  86 SW10G17   29.87R WCI  26
WHITEMAN AFB   CLOUDY    35  29  80 SW16      29.86S WCI  24
CLINTON        CLOUDY    36  32  87 SW9       29.89S WCI  29
SEDALIA        CLOUDY    36  29  75 W9        29.86S WCI  29
WARSAW         NOT AVBL
MARSHALL       CLOUDY    37  34  87 W8        29.84F WCI  31
CHILLICOTHE      N/A     35  29  78 MISG      29.83R
MOBERLY        CLOUDY    36  30  80 W10       29.81S WCI  28
KIRKSVILLE     CLOUDY    34  30  85 W12       29.78F WCI  25

$$

MOZ041-047>049-056>058-063>065-088>090-097-250400-
...EASTERN AND SOUTHERN MISSOURI...

CITY           SKY/WX    TMP DP  RH WIND       PRES   REMARKS
ST. LOUIS INTL CLOUDY    39  33  79 W12       29.82S WCI  32
SPIRIT OF STL  CLOUDY    37  34  89 W6        29.82R WCI  32
COLUMBIA       CLOUDY    37  33  85 W9        29.84R WCI  30
JEFFERSON CITY CLOUDY    38  33  82 W7        29.87R WCI  33
MEXICO         CLOUDY    37  37 100 W8        29.82  WCI  31
HANNIBAL       CLOUDY    37  28  70 W10       29.80R WCI  30
ROLLA          CLOUDY    35  32  88 W9        29.83S WCI  28
LEBANON        CLOUDY    36  30  80 W13G20    29.88S WCI  27
OSAGE BEACH    CLOUDY    37  28  70 W12G17    29.88R WCI  30
SPRINGFIELD    CLOUDY    35  29  78 W10       29.91R WCI  27
BRANSON        CLOUDY    36  28  75 W6G16     29.95R WCI  31
NEVADA         CLEAR     32  28  86 SW3       29.91S
JOPLIN         CLEAR     31  27  85 S6        29.92F WCI  25
WEST PLAINS    CLOUDY    37  30  75 W7        29.90R WCI  32

$$

IAZ060-094-KSZ022-034>040-054-083-096-NEZ052-066-093-250400-
...KANSAS...SOUTHEAST NEBRASKA AND IOWA...

CITY           SKY/WX    TMP DP  RH WIND       PRES   REMARKS
TOPEKA         CLEAR     32  28  85 S3        29.82F
MANHATTAN      CLEAR     26  25  96 CALM      29.78F
EMPORIA        CLEAR     28  26  92 S12       29.82F WCI  18
CHANUTE        CLEAR     28  26  92 S7        29.88F WCI  21
WICHITA        PTCLDY    30  22  72 S9        29.82F WCI  22
OMAHA          PTCLDY    29  26  89 S10       29.73F WCI  20
LINCOLN        PTCLDY    26  24  92 SE6       29.71F WCI  19
FALLS CITY     CLEAR     30  26  85 S7        29.77F WCI  23
LAMONI         CLOUDY    31  28  89 W14       29.77S WCI  21
DES MOINES     CLOUDY    32  28  85 W15       29.73F WCI  22

$$




USA.gov is the U.S. government's official web portal to all federal, state and local government web resources and services.